UPMSAT-2 (46276 NORAD) Tracking and Keplerian Element Data

This shows tracking and keplerian element data for the satellite.

Feedback or suggestion? Click here.




ElementValue
Catalog46276
NameUPMSAT-2
Epoch Orbit309
Epoch Day267.53934964
Epoch Year2020
RAAN340.2896
Inclination97.4628
Eccentricity0.0001641
Argument of Perigee143.3583
Mean Anonmoly216.7763
Mean Motion15.16046535
Decay Rate3.8E-06
L11 46276U 20061E 20267.53934964 .00000380 00000-0 23160-4 0 9991
L22 46276 97.4628 340.2896 0001641 143.3583 216.7763 15.16046535 3094

Live tracking and technical data element details for UPMSAT-2 (NORAD 46276). UPMSAT-2 can be tracked NOW for your location showing map with azimuth and elevation plus other details from your city location.

Track the satellite on the map from your city or location and see movement details for azimuth, elevation, latitude, longitude, range, height, and movement on the map or in text.







IsCatalogInMostPopularTable: catalog: 46276, numindb: 2
Update: records affected: 1



GetName: 46276 UPMSAT-2

Hit Count: updated at: Thu, 24 Sep 2020 17:33:18 GMT